Regional Weather Roundup
Issued by NWS Sioux Falls, SD

Home | Current Version | Previous Version | Text Only | Print | Product List | Glossary On
Versions: 1 2 3 4 5 6 7 8 9 10 11 12 13 14 15 16 17 18 19 20 21 22 23 24 25 26 27 28 29 30 31 32 33 34 35 36 37 38 39 40 41 42 43 44 45 46 47 48 49 50
000
ASUS43 KFSD 180902
RWRFSD

WEATHER ROUNDUP FOR SE SOUTH DAKOTA/SW MINNESOTA/NW IOWA
NATIONAL WEATHER SERVICE SIOUX FALLS SD
400 AM CDT THU SEP 18 2014

NOTE: "FAIR" INDICATES FEW OR NO CLOUDS BELOW 12,000 FEET WITH NO
SIGNIFICANT WEATHER AND OR OBSTRUCTIONS TO VISIBILITY.


SDZ038>040-050-052>070-181000-
SOUTHEAST SOUTH DAKOTA

CITY           SKY/WX    TMP DP  RH WIND       PRES   REMARKS
CHAMBERLAIN    PTCLDY    54  52  93 E5        29.94S
HURON          CLEAR     54  51  90 SE5       29.95F
MADISON        FAIR      48  48 100 E5        29.99S
MITCHELL       CLEAR     54  53  97 CALM      29.96S
SIOUX FALLS    PTCLDY    57  53  86 E5        29.98S
WINNER         FAIR      60  55  83 SE7       29.93S
YANKTON        CLEAR     55  54  94 E7        29.96S
$$

MNZ071-072-080-081-089-090-097-098-181000-
SOUTHWEST MINNESOTA

CITY           SKY/WX    TMP DP  RH WIND       PRES   REMARKS
FAIRMONT       PTCLDY    52  46  82 S6        30.01F
JACKSON        CLEAR     52  48  87 SE3       30.01F
LUVERNE        MOCLDY    54  52  94 CALM      30.00S
MARSHALL       CLEAR     48  46  93 CALM      29.99S
MONTEVIDEO     CLEAR     52  52 100 SE6       30.01S
PIPESTONE      CLEAR     55  52  88 SE6       30.00S
REDWOOD FALLS  CLEAR     53  52  96 E9        30.01R
TRACY          CLEAR     56  52  88 CALM      30.01R
WINDOM         CLEAR     54  52  94 CALM      30.01S
WORTHINGTON    CLEAR     52  52 100 CALM      30.02R
$$

IAZ001>003-012>014-020>022-031-032-NEZ013-014-SDZ071-181000-
NORTHWEST IOWA

CITY           SKY/WX    TMP DP  RH WIND       PRES   REMARKS
CHEROKEE       PTCLDY    54  54 100 CALM      29.99S
DENISON        CLEAR     57  55  94 CALM      29.98S
ESTHERVILLE    CLEAR     49  48  97 SE6       30.01S
LE MARS          N/A     54  54 100 CALM      29.98S
ORANGE CITY    PTCLDY    57  54  88 CALM      29.99S
SHELDON        MOCLDY    54  54 100 E6        29.99S
SIOUX CITY     PTCLDY    58  55  90 SE5       29.97F
SPENCER        CLEAR     50  47  89 E5        30.00F
STORM LAKE     PTCLDY    54  54 100 SE5       30.00S
$$

ABBREVIATIONS USED IN REMARKS
   TC - TEMPERATURE IN CELSIUS
  WCI - WIND CHILL INDEX
   HX - HEAT INDEX
  VSB - VISIBILITY



USA.gov is the U.S. government's official web portal to all federal, state and local government web resources and services.